Weather Roundup
Issued by NWS

Home | Current Version | Previous Version | Text Only | Print | Product List | Glossary On
Versions: 1 2 3 4 5 6 7 8 9 10 11 12 13 14 15 16 17 18 19 20 21 22 23 24 25 26 27 28 29 30 31 32 33 34 35 36 37 38 39 40 41 42 43 44 45 46 47 48 49 50
049
NZUS93 KARX 232259
HRRWXR

CURRENT HOURLY OBSERVATIONS ACROSS
MUCH OF THE UPPER MISSISSIPPI VALLEY
NATIONAL WEATHER SERVICE LA CROSSE WI
600 PM CDT THU MAR 23 2017


...SOUTHEAST MINNESOTA...


CITY           SKY/WX    TMP DP  RH WIND       PRES   REMARKS
ROCHESTER      CLOUDY    37  36  96 SE20      29.85F WCI  27
ROCHESTER/MAYO CLOUDY    37  37 100 E12G17    29.85F WCI  29
WINONA         TSTM      37  34  87 S6        29.96R WCI  33
AUSTIN         CLOUDY    37  36  93 SE14      29.82F WCI  29
ALBERT LEA     CLOUDY    37  36  93 SE15G23   29.77F WCI  28
DODGE CENTER   CLOUDY    37  36  93 SE17G23   29.82F FOG     WCI  28
PRESTON        CLOUDY    36  34  92 SE20G25   29.84F WCI  25
OWATONNA       CLOUDY    37  36  93 SE12G21   29.82R WCI  30
FARIBAULT      CLOUDY    37  36  93 E10       29.84F WCI  30
$$

...ELSEWHERE IN MINNESOTA...


CITY           SKY/WX    TMP DP  RH WIND       PRES   REMARKS
MINNEAPOLIS    LGT RAIN  39  33  79 E17       29.79F WCI  30
INTNL FALLS    LGT RAIN  34  31  88 S3        29.83S FOG
DULUTH         LGT RAIN  34  27  75 SE9       29.88F WCI  27
RED WING       CLOUDY    43  28  56 SE13G18   29.90F
REDWOOD FALLS  CLOUDY    38  34  85 SE14      29.77F FOG     WCI  30
MANKATO        CLOUDY    37  34  89 E9        29.82R WCI  30
WORTHINGTON    CLOUDY    43  35  73 SE13      29.73R
FAIRMONT       CLOUDY    41  35  79 SE14G28   29.77S
$$

...SOUTHWEST WISCONSIN...


CITY           SKY/WX    TMP DP  RH WIND       PRES   REMARKS
LA CROSSE      TSTM      42  34  73 VRB5      29.98R
PRAIRIE DU CHI CLOUDY    37  36  96 E9        29.93F WCI  30
BOSCOBEL       TSTM      40  33  76 VRB6G16   29.96F
LONE ROCK      LGT RAIN  43  27  52 S6        29.99R
PLATTEVILLE    CLOUDY    38  31  75 SE12G26   29.97R WCI  31
FORT MC COY    CLOUDY    44  29  56 S8        29.97F
MAUSTON-NEW LI MOCLDY    45  25  46 SW6       29.99R
VIROQUA        CLOUDY    39  32  77 SE10      29.93F WCI  32
WIS DELLS      CLOUDY    42  22  45 S16G24    29.92F
$$

...ELSEWHERE IN WISCONSIN...


CITY           SKY/WX    TMP DP  RH WIND       PRES   REMARKS
MILWAUKEE      CLOUDY    41  27  57 SE14      30.12F
MADISON        CLOUDY    43  20  39 S20G35    29.92F
GREEN BAY      CLOUDY    37  28  70 SE16      30.01F WCI  28
EAU CLAIRE     NOT AVBL
BLACK RVR FLS  CLOUDY    44  23  44 CALM      29.96F
MEDFORD        DRIZZLE   36  23  59 S6        29.99R WCI  31
WAUSAU         CLOUDY    39  21  48 S7        30.00R WCI  34
WIS RAPIDS     CLOUDY    43  22  43 S5        30.03R
MARSHFIELD     LGT RAIN  39  24  55 S9        29.98R WCI  33
RICE LAKE      CLOUDY    39  24  54 SE18      29.87F WCI  30
$$

...NORTHEAST IOWA...


CITY           SKY/WX    TMP DP  RH WIND       PRES   REMARKS
WATERLOO       PTSUNNY   41  37  86 SE20G29   29.87F
DUBUQUE        CLOUDY    39  31  72 S22G33    29.94F WCI  29
DECORAH        LGT RAIN  37  36  93 SE8G14    29.92F WCI  31
MASON CITY     PTSUNNY   38  35  89 SE25G38   29.74F WCI  27
CHARLES CITY   CLOUDY    39  39 100 S21G28    29.86F WCI  29
OELWEIN        NOT AVBL
$$

...ELSEWHERE IN IOWA...


CITY           SKY/WX    TMP DP  RH WIND       PRES   REMARKS
DES MOINES     PTSUNNY   57  38  48 E10       29.80F
IOWA CITY      CLOUDY    47  37  68 SE18G24   29.97F
FORT DODGE     CLOUDY    48  34  57 SE15      29.77R
MARSHALLTOWN   CLOUDY    46  37  71 SE18G28   29.85F
CEDAR RAPIDS   PTSUNNY   43  37  79 SE13      29.94F
$$

...NORTHERN ILLINOIS...


CITY           SKY/WX    TMP DP  RH WIND       PRES   REMARKS
CHICAGO-OHARE  CLOUDY    50  25  37 S14       30.11F
CHICAGO-MIDWAY CLOUDY    50  25  37 S15G24    30.12F
MOLINE         MOSUNNY   46  36  68 SE12      30.02S
ROCKFORD       CLOUDY    47  25  42 S16       30.08F
PEORIA         SUNNY     46  37  71 SE16G22   30.04F
$$

NOTE: "FAIR" INDICATES FEW OR NO CLOUDS BELOW 12,000 FEET WITH NO
SIGNIFICANT WEATHER AND/OR OBSTRUCTIONS TO VISIBILITY. WIND
SPEEDS ARE IN MILES-PER-HOUR.




USA.gov is the U.S. government's official web portal to all federal, state and local government web resources and services.